Location: ??
(35.5653°N, 139.6194°E)
Time: 23:48:02
(UTC+00:00)

Cosmos 1515 Rocket - Pass Details

Date: 20 November 2019
Orbit: 605 x 631 km, 82.5° (Epoch: 08 December)

Event Time Altitude Azimuth Distance (km) Brightness Sun altitude
Rises 19:53:18 0° 355° (N) 2,866 6.8 -18.0°
Reaches altitude 10° 19:55:32 10° 358° (N) 1,959 6.0 -17.6°
Maximum altitude 19:59:51 72° 82° (E) 640 3.7 -16.7°
Drops below altitude 10° 20:04:09 10° 168° (SSE) 1,952 6.4 -15.9°
Sets 20:06:22 0° 170° (S) 2,855 7.3 -15.4°
